Find Starlink 30378

NORAD ID: 57787 Int'l Des: 2023-134 Owner: SPXS Country: US Constellation: starlink operational
LEOCIRCULAR

Current View

Loading 3D Globe...

About Starlink 30378

Starlink 30378 (NORAD 57787) is a starlink constellation satellite (v2 mini) launched Sep 4, 2023 by SPXS of US. It operates in LEO, CIRCULAR orbit with a mass of 730.00 kg.

About Starlink 30378

Description loading...

Upcoming Passes

Passes for default location (London). Set your location on the main map for personalized predictions.

Altitude History

Loading altitude history...

Two-Line Element Set

1 57787U 23134S 26174.80376358 -.00000703 00000-0 -16029-4 0 9991
2 57787 43.0019 315.3707 0001083 261.8240 98.2489 15.27586275155733
Epoch: Jun 23, 2026 • Age: 42 hours

Current Status

Altitude 489.3 km
Velocity 7.62 km/s
Sub-Earth Point -26.71°S, 157.06°E
Launch Date Sep 4, 2023
Age 2.8 years
Type internet

Technical Details

Classification Payload
Mass 730.00 kg
Dry Mass 700.00 kg
Total Mass 730.00 kg
Length 0.30 m
Diameter 4.10 m
Span 29.00 m
Shape Box + pan
Manufacturer SPXS
Bus Type Starlink V2M
Phase Status In Orbit
Owner/State SPXS/US

Most Searched